Location: Tucson
(32.2217°N, 110.9265°W)
Time: 12:27:49
(UTC-07:00)

Amateur Radio Satellites - All Passes

Search period start: 21 September 2017 11:57
Search period end: 22 September 2017 11:57
Location: Tucson, 32.2217°N, 110.9265°W

Satellite Date Start Highest point End Downlink Frequencies (MHz)
Time Altitude Azimuth
Oscar 19 21 Sep 12:03:32 12:06:41 17° 66° (ENE) 12:09:52 437.125/150
SPROUT 21 Sep 12:06:56 12:10:33 26° 97° (E) 12:14:08 437.525
O/OREOS (USA 219) 21 Sep 12:08:26 12:12:27 29° 65° (ENE) 12:16:27 437.305
NO-84 21 Sep 12:17:49 12:21:22 31° 126° (SE) 12:24:42 435.350 FM
DUCHIFAT 1 21 Sep 12:23:53 12:27:34 31° 262° (W) 12:31:18 145.980
LO-87 21 Sep 12:32:55 12:34:42 13° 290° (WNW) 12:36:30 145.935 - 145.965
POLYITAN 1 21 Sep 12:34:36 12:37:32 18° 265° (W) 12:40:29 437.675
EO-79 21 Sep 12:40:02 12:42:38 16° 265° (W) 12:45:14 145.935-145.965
ESTCUBE 1 21 Sep 12:44:30 12:48:03 24° 290° (WNW) 12:51:36 437.505/2401.250
50 SAT 21 Sep 12:54:38 12:56:50 17° 96° (E) 12:59:01 437.505
UKube-1 21 Sep 13:05:10 13:06:47 12° 94° (E) 13:08:25 .
DX 1 21 Sep 13:05:21 13:08:36 21° 96° (E) 13:11:50 434.975-435.025
Gurwin Techsat 1B 21 Sep 13:05:32 13:10:36 46° 72° (ENE) 13:15:39 435.225
BUGSAT 1 21 Sep 13:09:16 13:12:55 36° 261° (W) 13:16:39 437.445
M-CUBED/EXP-1 PRIME 21 Sep 13:18:36 13:20:42 13° 260° (W) 13:22:46 437.505
VELOX 1 21 Sep 13:23:50 13:28:04 49° 286° (WNW) 13:32:17 145.980
Oscar 19 21 Sep 13:40:33 13:45:33 49° 260° (W) 13:50:35 437.125/150
SPROUT 21 Sep 13:43:05 13:46:14 20° 290° (WNW) 13:49:22 437.525
O/OREOS (USA 219) 21 Sep 13:48:15 13:51:37 20° 259° (W) 13:54:58 437.305
YUBILEINY 21 Sep 13:49:54 13:57:01 28° 286° (WNW) 14:04:10 435.215
AO-7 21 Sep 13:50:56 13:57:40 28° 61° (ENE) 14:04:23 .
SO-50 21 Sep 13:53:16 13:57:43 66° 116° (ESE) 14:02:10 436.795
NO-84 21 Sep 13:55:43 13:58:46 22° 317° (NW) 14:01:38 435.350 FM
RS-15 21 Sep 13:56:44 14:07:59 44° 52° (NE) 14:18:35 29.354- 29.394
PCSat 21 Sep 14:02:55 14:07:50 37° 109° (ESE) 14:12:47 145.827
50 SAT 21 Sep 14:26:58 14:29:10 17° 289° (WNW) 14:31:22 437.505
BEESAT 21 Sep 14:34:41 14:37:20 15° 94° (E) 14:39:57 436.000
UKube-1 21 Sep 14:38:53 14:42:57 43° 286° (WNW) 14:47:01 .
ITAMSAT 1 21 Sep 14:40:25 14:45:04 35° 71° (ENE) 14:49:43 435.822/435.867
DX 1 21 Sep 14:41:06 14:44:42 26° 289° (WNW) 14:48:15 434.975-435.025
Gurwin Techsat 1B 21 Sep 14:47:21 14:50:41 17° 266° (W) 14:54:02 435.225
MOZHAYETS 4 21 Sep 15:25:48 15:30:23 58° 101° (E) 15:34:55
ITUPSAT 1 21 Sep 15:32:10 15:36:58 67° 102° (ESE) 15:41:43 437.325
SO-50 21 Sep 15:36:57 15:38:34 12° 312° (NW) 15:40:14 436.795
AO-7 21 Sep 15:41:45 15:49:54 56° 257° (WSW) 15:58:02 .
PCSat 21 Sep 15:46:53 15:51:15 25° 304° (WNW) 15:55:40 145.827
CUBESAT XI-V 21 Sep 15:46:55 15:50:00 18° 94° (E) 15:53:05 437.345
DOVE 4 21 Sep 15:52:41 15:54:43 13° 69° (ENE) 15:56:42 437.250
RS-15 21 Sep 16:09:23 16:20:22 49° 252° (WSW) 16:30:51 29.354- 29.394
BEESAT 21 Sep 16:10:42 16:15:14 44° 287° (WNW) 16:19:46 436.000
ITAMSAT 1 21 Sep 16:20:38 16:24:32 22° 264° (W) 16:28:26 435.822/435.867
MOZHAYETS 4 21 Sep 17:05:38 17:06:57 11° 294° (WNW) 17:08:17
XW-2D 21 Sep 17:10:59 17:14:09 25° 72° (ENE) 17:17:20 145.860 - 145.880
ITUPSAT 1 21 Sep 17:13:09 17:14:09 11° 296° (WNW) 17:15:09 437.325
XW-2B 21 Sep 17:22:54 17:26:22 34° 74° (ENE) 17:29:52 145.730 - 145.750
CUBESAT XI-V 21 Sep 17:23:15 17:27:24 34° 288° (WNW) 17:31:31 437.345
XW-2F 21 Sep 17:24:47 17:28:15 34° 74° (ENE) 17:31:45 145.980 - 146.000
DOVE 4 21 Sep 17:27:40 17:32:03 44° 260° (W) 17:36:13 437.250
HO-68 21 Sep 17:33:37 17:38:45 22° 63° (ENE) 17:43:54 435.675
KKS-1 21 Sep 17:39:29 17:43:54 68° 284° (WNW) 17:48:17 437.445
XW-2C 21 Sep 17:43:44 17:47:32 71° 77° (ENE) 17:51:22 145.795 - 145.815
CUTE-I 21 Sep 17:50:33 17:55:49 69° 75° (ENE) 18:01:05 437.470
LilacSat-2 21 Sep 17:53:12 17:57:03 78° 259° (W) 18:00:56 437.200
NUDT-PHONESAT 21 Sep 17:55:29 17:59:12 69° 77° (ENE) 18:02:56 437.300
STARS 21 Sep 18:10:18 18:14:43 79° 283° (WNW) 18:19:06 437.465
KAITUO 1B 21 Sep 18:20:23 18:24:03 48° 260° (W) 18:27:43 145.475/437.950
JUGNU 21 Sep 18:21:37 18:24:55 15° 165° (SSE) 18:28:13 437.505
SEEDS 21 Sep 18:39:32 18:43:17 32° 73° (ENE) 18:47:04 437.485
BEESAT 3 21 Sep 18:40:09 18:42:40 16° 109° (ESE) 18:45:14 437.485
XW-2D 21 Sep 18:45:51 18:48:15 16° 265° (W) 18:50:42 145.860 - 145.880
XW-2A 21 Sep 18:46:01 18:48:40 21° 72° (ENE) 18:51:20 145.665 - 145.685
XW-2B 21 Sep 18:59:15 19:00:37 12° 267° (W) 19:02:00 145.730 - 145.750
XW-2F 21 Sep 19:01:07 19:02:27 11° 267° (W) 19:03:46 145.980 - 146.000
CUTE 1.7 + AOD 2 21 Sep 19:02:36 19:06:52 73° 258° (WSW) 19:11:10 437.475
CUBEBUG 2 21 Sep 19:08:53 19:13:00 65° 76° (ENE) 19:17:16 437.445
AAUSAT CUBESAT 2 21 Sep 19:09:10 19:12:48 30° 73° (ENE) 19:16:26 437.432
Tancredo 1 21 Sep 19:11:21 19:14:02 85° 317° (NW) 19:16:43 437.200
HO-68 21 Sep 19:18:51 19:25:52 60° 258° (WSW) 19:32:56 435.675
UWE-3 21 Sep 19:20:31 19:24:34 48° 75° (ENE) 19:28:45 435.000/436.395/437.385
AO-85 21 Sep 19:21:35 19:23:45 14° 109° (ESE) 19:25:53 145.980
nSIGHT-1 21 Sep 19:24:16 19:25:45 13° 126° (SE) 19:27:14 .
CUTE-I 21 Sep 19:34:57 19:36:14 11° 268° (W) 19:37:30 437.470
STRAND 1 21 Sep 19:35:37 19:40:41 58° 101° (E) 19:45:44 437.568
JUGNU 21 Sep 20:08:44 20:13:19 23° 175° (S) 20:17:52 437.505
AO-73 21 Sep 20:11:22 20:15:38 88° 258° (WSW) 20:20:02 145.935
ZACube-1 21 Sep 20:12:54 20:17:08 74° 258° (WSW) 20:21:31 437.345
Oscar 11 21 Sep 20:13:02 20:17:20 65° 76° (ENE) 20:21:39 .
FO-29 21 Sep 20:13:08 20:16:03 14° 95° (E) 20:19:07 435.910
ISS 21 Sep 20:15:01 20:18:10 49° 133° (SE) 20:21:20 437.550
BEESAT 3 21 Sep 20:16:23 20:19:56 30° 303° (WNW) 20:23:32 437.485
SEEDS 21 Sep 20:16:24 20:18:59 16° 266° (W) 20:21:34 437.485
BEESAT 2 21 Sep 20:18:02 20:21:59 73° 116° (ESE) 20:26:00 435.950
XW-2A 21 Sep 20:19:30 20:21:19 14° 265° (W) 20:23:09 145.665 - 145.685
NO-84 21 Sep 20:32:54 20:35:03 18° 41° (NE) 20:37:08 435.350 FM
AAUSAT CUBESAT 2 21 Sep 20:45:37 20:48:13 16° 265° (W) 20:50:51 437.432
Max Valier Satellite 21 Sep 20:54:21 20:57:25 25° 73° (ENE) 21:00:30 145.860
DELFI C3 21 Sep 20:57:28 21:01:13 41° 74° (ENE) 21:04:56 145.870
nSIGHT-1 21 Sep 20:58:44 21:01:46 39° 319° (NW) 21:04:50 .
AO-85 21 Sep 21:00:19 21:03:48 31° 303° (WNW) 21:07:18 145.980
UWE-3 21 Sep 21:00:42 21:01:17 10° 268° (W) 21:01:51 435.000/436.395/437.385
STRAND 1 21 Sep 21:16:48 21:19:19 14° 295° (WNW) 21:21:49 437.568
SRMSAT 21 Sep 21:30:17 21:33:54 17° 167° (SSE) 21:37:30 437.500
UNISAT 6 21 Sep 21:33:36 21:37:36 28° 97° (E) 21:41:37 437.425
PRISM 21 Sep 21:36:32 21:38:02 12° 94° (E) 21:39:31 437.425
ISS 21 Sep 21:52:57 21:54:50 14° 327° (NNW) 21:56:45 437.550
FO-29 21 Sep 21:55:49 22:01:16 61° 286° (WNW) 22:07:21 435.910
JUGNU 21 Sep 21:57:12 22:01:45 23° 185° (S) 22:06:16 437.505
TIGRISAT 21 Sep 21:57:29 22:02:00 48° 99° (E) 22:06:32 435.000
EO-88 21 Sep 21:59:16 22:02:49 48° 261° (W) 22:06:22 145.990 - 145.960
ESTCUBE 1 21 Sep 22:03:58 22:06:11 14° 67° (ENE) 22:08:24 437.505/2401.250
YUBILEINY 21 Sep 22:09:07 22:15:00 19° 70° (ENE) 22:20:51 435.215
NO-84 21 Sep 22:10:18 22:12:15 17° 236° (WSW) 22:14:11 435.350 FM
Max Valier Satellite 21 Sep 22:29:07 22:31:12 15° 266° (W) 22:33:19 145.860
SO-50 21 Sep 22:29:47 22:32:54 18° 52° (NE) 22:36:01 436.795
DELFI C3 21 Sep 22:35:46 22:36:05 10° 267° (W) 22:36:26 145.870
PCSat 21 Sep 22:57:21 22:59:32 12° 50° (NE) 23:01:42 145.827
SPROUT 21 Sep 22:57:48 22:59:03 11° 67° (ENE) 23:00:18 437.525
AIST 2D 21 Sep 22:59:04 23:01:54 22° 97° (E) 23:04:41 435.315
LO-87 21 Sep 23:02:17 23:05:47 70° 259° (W) 23:09:18 145.935 - 145.965
QB50P2 21 Sep 23:06:51 23:08:29 12° 93° (E) 23:10:07 145.880/145.840
PRISM 21 Sep 23:09:38 23:13:24 38° 287° (WNW) 23:17:10 437.425
UNISAT 6 21 Sep 23:10:26 23:14:06 23° 290° (WNW) 23:17:47 437.425
SRMSAT 21 Sep 23:17:50 23:22:27 24° 176° (S) 23:27:03 437.500
TIGRISAT 21 Sep 23:35:50 23:38:13 14° 293° (WNW) 23:40:36 435.000
ESTCUBE 1 21 Sep 23:38:12 23:42:32 45° 260° (W) 23:46:54 437.505/2401.250
NANOSAT C BR1 21 Sep 23:42:38 23:46:15 27° 97° (E) 23:49:51 145.865
JUGNU 21 Sep 23:46:54 23:50:07 15° 195° (SSW) 23:53:20 437.505
DX 1 21 Sep 23:58:52 23:59:33 10° 66° (ENE) 00:00:14 434.975-435.025
YUBILEINY 22 Sep 00:03:48 00:12:29 73° 267° (W) 00:21:11 435.215
SO-50 22 Sep 00:09:09 00:13:31 43° 246° (WSW) 00:17:55 436.795
DUCHIFAT 1 22 Sep 00:11:46 00:15:56 54° 100° (E) 00:20:06 145.980
VELOX 1 22 Sep 00:15:44 00:20:08 78° 77° (ENE) 00:24:32 145.980
POLYITAN 1 22 Sep 00:22:23 00:26:41 82° 282° (WNW) 00:30:57 437.675
EO-79 22 Sep 00:27:18 00:31:33 71° 284° (WNW) 00:35:47 145.935-145.965
SPROUT 22 Sep 00:30:23 00:34:27 47° 260° (W) 00:38:33 437.525
AIST 2D 22 Sep 00:32:50 00:34:50 15° 289° (WNW) 00:36:49 435.315
PCSat 22 Sep 00:38:07 00:43:33 82° 246° (WSW) 00:48:56 145.827
QB50P2 22 Sep 00:40:22 00:44:24 43° 286° (WNW) 00:48:27 145.880/145.840
50 SAT 22 Sep 00:50:51 00:54:06 60° 77° (ENE) 00:57:22 437.505
BUGSAT 1 22 Sep 00:55:00 00:59:00 42° 99° (E) 01:03:01 437.445
M-CUBED/EXP-1 PRIME 22 Sep 00:59:26 01:02:41 61° 106° (ESE) 01:05:53 437.505
SRMSAT 22 Sep 01:06:34 01:11:02 22° 187° (S) 01:15:31 437.500
NANOSAT C BR1 22 Sep 01:18:40 01:21:44 19° 290° (WNW) 01:24:47 145.865
Gurwin Techsat 1B 22 Sep 01:26:56 01:31:24 27° 97° (E) 01:35:51 435.225
UKube-1 22 Sep 01:27:57 01:32:15 82° 77° (ENE) 01:36:33 .
DX 1 22 Sep 01:30:57 01:35:11 55° 259° (W) 01:39:27 434.975-435.025
BEESAT 22 Sep 01:38:40 01:39:25 10° 64° (ENE) 01:40:10 436.000
Oscar 19 22 Sep 01:56:42 02:01:53 87° 107° (ESE) 02:07:01 437.125/150
O/OREOS (USA 219) 22 Sep 02:15:21 02:19:49 83° 107° (ESE) 02:24:21 437.305
MOZHAYETS 4 22 Sep 02:23:02 02:27:05 31° 72° (ENE) 02:31:10
BUGSAT 1 22 Sep 02:32:06 02:33:56 13° 292° (WNW) 02:35:46 437.445
ITUPSAT 1 22 Sep 02:34:08 02:38:38 44° 73° (ENE) 02:43:10 437.325
CUBESAT XI-V 22 Sep 02:47:33 02:48:44 11° 66° (ENE) 02:49:56 437.345
SRMSAT 22 Sep 02:56:44 02:59:34 14° 196° (SSW) 03:02:24 437.500
ITAMSAT 1 22 Sep 02:58:45 03:02:16 18° 95° (E) 03:05:48 435.822/435.867
Gurwin Techsat 1B 22 Sep 03:06:42 03:11:14 29° 290° (WNW) 03:15:46 435.225
Tancredo 1 22 Sep 03:09:17 03:11:59 73° 224° (SW) 03:14:39 437.200
BEESAT 22 Sep 03:11:51 03:16:33 66° 258° (WSW) 03:21:18 436.000
nSIGHT-1 22 Sep 03:29:50 03:32:26 22° 37° (NE) 03:35:02 .
AO-7 22 Sep 03:48:28 03:56:44 69° 105° (ESE) 04:04:57 .
MOZHAYETS 4 22 Sep 04:00:58 04:04:13 19° 265° (W) 04:07:30
RS-15 22 Sep 04:12:47 04:23:56 44° 107° (ESE) 04:35:13 29.354- 29.394
ITUPSAT 1 22 Sep 04:14:02 04:16:36 14° 266° (W) 04:19:11 437.325
CUBESAT XI-V 22 Sep 04:20:52 04:25:31 62° 259° (W) 04:30:11 437.345
ISS 22 Sep 04:22:41 04:26:00 76° 48° (NE) 04:29:14 437.550
KKS-1 22 Sep 04:32:28 04:36:48 59° 75° (ENE) 04:41:09 437.445
ITAMSAT 1 22 Sep 04:36:57 04:41:49 42° 288° (WNW) 04:46:42 435.822/435.867
BEESAT 3 22 Sep 04:37:10 04:40:42 30° 57° (ENE) 04:44:10 437.485
BEESAT 2 22 Sep 04:42:16 04:43:22 11° 49° (NE) 04:44:29 435.950
STARS 22 Sep 05:01:58 05:06:08 48° 74° (ENE) 05:10:20 437.465
nSIGHT-1 22 Sep 05:05:58 05:08:44 26° 231° (SW) 05:11:28 .
XW-2C 22 Sep 05:23:55 05:24:17 10° 93° (E) 05:24:40 145.795 - 145.815
DOVE 4 22 Sep 05:30:18 05:34:33 66° 101° (ESE) 05:38:59 437.250
LilacSat-2 22 Sep 05:32:17 05:34:35 15° 94° (E) 05:36:52 437.200
AO-85 22 Sep 05:34:20 05:38:45 50° 60° (ENE) 05:43:30 145.980
AO-7 22 Sep 05:42:41 05:48:43 23° 301° (WNW) 05:54:46 .
KAITUO 1B 22 Sep 05:56:36 05:59:29 21° 96° (E) 06:02:20 145.475/437.950
CUTE-I 22 Sep 06:12:32 06:17:32 40° 99° (E) 06:22:31 437.470
BEESAT 3 22 Sep 06:15:36 06:17:56 15° 251° (WSW) 06:20:14 437.485
BEESAT 2 22 Sep 06:17:30 06:21:26 56° 246° (WSW) 06:25:19 435.950
XW-2D 22 Sep 06:21:16 06:25:04 73° 101° (E) 06:28:49 145.860 - 145.880
RS-15 22 Sep 06:24:27 06:36:11 51° 306° (NW) 06:48:05 29.354- 29.394
XW-2B 22 Sep 06:33:34 06:37:22 79° 283° (WNW) 06:41:08 145.730 - 145.750
XW-2F 22 Sep 06:34:57 06:38:45 80° 280° (W) 06:42:28 145.980 - 146.000
STARS 22 Sep 06:41:36 06:42:40 11° 267° (W) 06:43:44 437.465
STRAND 1 22 Sep 06:46:46 06:51:40 50° 73° (ENE) 06:56:34 437.568
HO-68 22 Sep 06:52:01 06:58:28 35° 99° (E) 07:04:53 435.675
CUTE 1.7 + AOD 2 22 Sep 06:52:36 06:56:10 26° 97° (E) 06:59:42 437.475
XW-2C 22 Sep 06:55:03 06:58:35 37° 286° (WNW) 07:02:05 145.795 - 145.815
NUDT-PHONESAT 22 Sep 07:04:05 07:07:35 40° 285° (WNW) 07:11:03 437.300
CUBEBUG 2 22 Sep 07:04:35 07:08:13 22° 95° (E) 07:11:52 437.445
LilacSat-2 22 Sep 07:05:37 07:08:49 26° 287° (WNW) 07:12:00 437.200
UWE-3 22 Sep 07:15:42 07:18:32 16° 94° (E) 07:21:22 435.000/436.395/437.385
AO-85 22 Sep 07:16:22 07:18:50 14° 251° (WSW) 07:21:23 145.980
KAITUO 1B 22 Sep 07:30:42 07:33:17 18° 289° (WNW) 07:35:51 145.475/437.950
XW-2A 22 Sep 07:43:56 07:47:12 43° 99° (E) 07:50:27 145.665 - 145.685
CUTE-I 22 Sep 07:53:24 07:57:15 21° 293° (WNW) 08:01:05 437.470
SEEDS 22 Sep 08:02:54 08:07:02 65° 284° (WNW) 08:11:08 437.485
FO-29 22 Sep 08:04:07 08:09:12 31° 71° (ENE) 08:13:53 435.910
AO-73 22 Sep 08:04:20 08:08:10 26° 96° (E) 08:11:57 145.935
ZACube-1 22 Sep 08:05:58 08:10:03 31° 97° (E) 08:14:04 437.345
Oscar 11 22 Sep 08:06:02 08:08:54 17° 95° (E) 08:11:45 .
STRAND 1 22 Sep 08:28:21 08:31:02 14° 266° (W) 08:33:45 437.568
CUTE 1.7 + AOD 2 22 Sep 08:28:45 08:31:46 19° 290° (WNW) 08:34:46 437.475
UNISAT 6 22 Sep 08:29:32 08:31:31 13° 67° (ENE) 08:33:32 437.425
AAUSAT CUBESAT 2 22 Sep 08:30:27 08:34:33 73° 282° (WNW) 08:38:37 437.432
HO-68 22 Sep 08:39:38 08:46:04 37° 293° (WNW) 08:52:30 435.675
CUBEBUG 2 22 Sep 08:40:40 08:44:45 30° 288° (WNW) 08:48:51 437.445
RS-15 22 Sep 08:46:19 08:52:42 15° 334° (NNW) 08:59:03 29.354- 29.394
UWE-3 22 Sep 08:50:43 08:55:03 39° 286° (WNW) 08:59:23 435.000/436.395/437.385
TIGRISAT 22 Sep 08:52:11 08:55:30 22° 70° (ENE) 08:58:52 435.000
EO-88 22 Sep 09:33:10 09:35:45 18° 96° (E) 09:38:19 145.990 - 145.960
AO-73 22 Sep 09:40:37 09:44:12 23° 289° (WNW) 09:47:46 145.935
Oscar 11 22 Sep 09:41:13 09:45:01 30° 288° (WNW) 09:48:48 .
ZACube-1 22 Sep 09:42:45 09:46:03 20° 290° (WNW) 09:49:20 437.345
FO-29 22 Sep 09:49:14 09:54:13 27° 262° (W) 09:58:49 435.910
PRISM 22 Sep 09:53:25 09:57:30 72° 76° (ENE) 10:01:35 437.425
Max Valier Satellite 22 Sep 10:01:40 10:05:23 70° 101° (E) 10:09:05 145.860
UNISAT 6 22 Sep 10:03:43 10:07:47 42° 261° (W) 10:11:57 437.425
DELFI C3 22 Sep 10:13:14 10:17:04 57° 284° (WNW) 10:20:53 145.870
TIGRISAT 22 Sep 10:28:34 10:32:01 24° 264° (W) 10:35:34 435.000
NANOSAT C BR1 22 Sep 10:32:20 10:33:29 11° 67° (ENE) 10:34:38 145.865
LO-87 22 Sep 10:35:15 10:36:48 12° 94° (E) 10:38:21 145.935 - 145.965
DUCHIFAT 1 22 Sep 10:59:26 11:02:34 21° 70° (ENE) 11:05:43 145.980
AIST 2D 22 Sep 11:00:32 11:04:03 89° 101° (E) 11:07:37 435.315
YUBILEINY 22 Sep 11:04:07 11:10:55 26° 84° (E) 11:17:41 435.215
EO-88 22 Sep 11:06:35 11:09:16 20° 288° (WNW) 11:11:56 145.990 - 145.960
POLYITAN 1 22 Sep 11:10:06 11:13:58 37° 73° (ENE) 11:17:52 437.675
RS-15 22 Sep 11:10:18 11:13:28 11° 14° (NNE) 11:16:36 29.354- 29.394
EO-79 22 Sep 11:14:44 11:18:41 43° 74° (ENE) 11:22:40 145.935-145.965
QB50P2 22 Sep 11:27:34 11:31:43 72° 77° (ENE) 11:35:56 145.880/145.840
ESTCUBE 1 22 Sep 11:35:07 11:39:30 52° 100° (E) 11:43:51 437.505/2401.250
M-CUBED/EXP-1 PRIME 22 Sep 11:39:52 11:43:57 38° 70° (ENE) 11:47:48 437.505
BUGSAT 1 22 Sep 11:41:22 11:43:42 15° 69° (ENE) 11:46:02 437.445
NO-84 22 Sep 11:44:09 11:47:21 23° 125° (SE) 11:50:24 435.350 FM
